DW3949 Weather Reports


Display with metric or nautical units.
time (UTC)temp
F
wind
direction
speed
MPH
gust
MPH
rain 1hr
in
rain 24hr
in
rain mn
in
humidity
%
barometer
mb
20260906115400 62 26 2.0 7.0 0.00 0.00 0.00 92 1015.2
20260906114905 62 69 2.0 5.0 0.00 0.00 0.00 92 1015.1
20260906114901 62 351 2.0 5.0 0.00 0.00 0.00 92 1015.2
20260906113859 62 40 1.0 5.0 0.00 0.00 0.00 92 1015.1
20260906113358 62 46 1.0 4.0 0.00 0.00 0.00 92 1015.0
20260906112859 62 14 1.0 4.0 0.00 0.00 0.00 92 1015.1
20260906112359 62 19 0.0 3.0 0.00 0.00 0.00 92 1015.1
20260906111859 62 45 0.0 1.0 0.00 0.00 0.00 91 1014.9
20260906111401 62 45 0.0 0.0 0.00 0.00 0.00 91 1015.0
20260906111356 62 45 0.0 0.0 0.00 0.00 0.00 91 1015.0
20260906110348 62 45 0.0 0.0 0.00 0.00 0.00 91 1015.0
20260906105848 62 45 0.0 0.0 0.00 0.00 0.00 91 1014.8
20260906105348 61 45 0.0 0.0 0.00 0.00 0.00 91 1014.7
20260906104848 61 45 0.0 0.0 0.00 0.00 0.00 91 1014.7
20260906104346 62 45 0.0 0.0 0.00 0.00 0.00 91 1014.6
20260906103845 62 45 0.0 0.0 0.00 0.00 0.00 91 1014.5
20260906103345 62 45 0.0 0.0 0.00 0.00 0.00 91 1014.5
20260906102844 62 45 0.0 0.0 0.00 0.00 0.00 91 1014.4
20260906102345 62 45 0.0 0.0 0.00 0.00 0.00 91 1014.3
20260906102337 62 45 0.0 0.0 0.00 0.00 0.00 91 1014.2
20260906101948 62 45 0.0 0.0 0.00 0.00 0.00 90 1014.1
20260906100835 62 45 0.0 1.0 0.00 0.00 0.00 91 1014.1
20260906100331 62 45 0.0 1.0 0.00 0.00 0.00 90 1014.1
20260906095833 62 45 0.0 1.0 0.00 0.00 0.00 90 1014.0
20260906095334 62 45 0.0 1.0 0.00 0.00 0.00 90 1014.0
20260906094829 62 45 0.0 1.0 0.00 0.00 0.00 90 1013.8
20260906094328 62 45 0.0 1.0 0.00 0.00 0.00 90 1013.8
20260906093825 62 45 0.0 1.0 0.00 0.00 0.00 90 1013.9
20260906093325 62 45 0.0 2.0 0.00 0.00 0.00 90 1013.9
20260906092829 62 45 0.0 2.0 0.00 0.00 0.00 90 1013.8
20260906092825 62 45 0.0 2.0 0.00 0.00 0.00 90 1013.8
20260906091818 62 45 0.0 2.0 0.00 0.00 0.00 90 1013.7
20260906091318 62 45 0.0 1.0 0.00 0.00 0.00 90 1013.7
20260906090816 62 45 0.0 1.0 0.00 0.00 0.00 90 1013.7
20260906090315 62 45 0.0 0.0 0.00 0.00 0.00 89 1013.6
20260906085805 62 45 0.0 0.0 0.00 0.00 0.00 89 1013.5
20260906085306 62 45 0.0 0.0 0.00 0.00 0.00 89 1013.5
20260906084806 62 45 0.0 0.0 0.00 0.00 0.00 89 1013.4
20260906084308 63 45 0.0 0.0 0.00 0.00 0.00 89 1013.4
20260906083805 63 45 0.0 0.0 0.00 0.00 0.00 89 1013.5
20260906083308 63 45 0.0 1.0 0.00 0.00 0.00 89 1013.5
20260906083303 63 45 0.0 1.0 0.00 0.00 0.00 89 1013.4
20260906082308 63 45 0.0 1.0 0.00 0.00 0.00 89 1013.5
20260906082305 63 45 0.0 1.0 0.00 0.00 0.00 89 1013.4
20260906081300 63 45 0.0 1.0 0.00 0.00 0.00 89 1013.5
20260906080748 63 45 0.0 1.0 0.00 0.00 0.00 89 1013.5
20260906080248 64 45 0.0 0.0 0.00 0.00 0.00 89 1013.4
20260906075737 64 45 0.0 0.0 0.00 0.00 0.00 90 1013.3
20260906075239 64 45 0.0 0.0 0.00 0.00 0.00 90 1013.3
20260906074737 64 45 0.0 0.0 0.00 0.00 0.00 90 1013.3
20260906074730 64 45 0.0 0.0 0.00 0.00 0.00 90 1013.3
20260906073726 64 45 0.0 0.0 0.00 0.00 0.00 90 1013.1
20260906073221 64 45 0.0 0.0 0.00 0.00 0.00 90 1013.1
20260906072720 64 45 0.0 0.0 0.00 0.00 0.00 90 1013.2
20260906072219 64 45 0.0 0.0 0.00 0.00 0.00 90 1013.1
20260906071717 64 45 0.0 0.0 0.00 0.00 0.00 90 1013.1
20260906071217 64 45 0.0 0.0 0.00 0.00 0.00 90 1013.1
20260906070718 65 45 0.0 0.0 0.00 0.00 0.00 90 1013.2
20260906070218 65 45 0.0 2.0 0.00 0.00 0.00 90 1013.2
20260906065714 64 45 0.0 2.0 0.00 0.00 0.00 89 1013.2
20260906065215 64 45 0.0 2.0 0.00 0.00 0.00 89 1013.1
20260906064714 64 45 0.0 2.0 0.00 0.00 0.00 89 1013.1
20260906064210 64 151 0.0 1.0 0.00 0.00 0.00 89 1013.1
20260906063712 64 151 0.0 1.0 0.00 0.00 0.00 89 1013.0
20260906063210 65 151 0.0 1.0 0.00 0.00 0.00 89 1013.1
20260906062710 65 151 0.0 1.0 0.00 0.00 0.00 89 1013.1
20260906062213 65 151 0.0 1.0 0.00 0.00 0.00 89 1013.2
20260906061710 65 151 0.0 1.0 0.00 0.00 0.00 89 1013.1
20260906061210 65 151 0.0 0.0 0.00 0.00 0.00 89 1013.2
20260906060709 65 151 0.0 0.0 0.00 0.00 0.00 89 1013.1
20260906060207 65 151 0.0 1.0 0.00 0.00 0.00 89 1013.1
20260906055705 65 151 0.0 1.0 0.00 0.00 0.00 89 1013.1
20260906055207 65 151 0.0 1.0 0.00 0.00 0.00 89 1013.1
20260906054706 65 151 0.0 1.0 0.00 0.00 0.00 89 1013.2
20260906054201 65 151 0.0 1.0 0.00 0.00 0.00 89 1013.2
20260906053706 66 151 0.0 0.0 0.00 0.00 0.00 89 1013.1
20260906053701 66 151 0.0 1.0 0.00 0.00 0.00 89 1013.1
20260906052654 66 151 0.0 0.0 0.00 0.00 0.00 89 1013.1
20260906052154 66 151 0.0 0.0 0.00 0.00 0.00 89 1013.2
20260906051654 66 151 0.0 0.0 0.00 0.00 0.00 88 1013.3
20260906051650 66 151 0.0 0.0 0.00 0.00 0.00 89 1013.2
20260906050649 66 151 0.0 0.0 0.00 0.00 0.00 88 1013.3
20260906050151 67 151 0.0 0.0 0.00 0.00 0.00 88 1013.3
20260906045647 67 151 0.0 0.0 0.00 0.00 0.00 88 1013.2
20260906045148 67 151 0.0 0.0 0.00 0.00 0.00 88 1013.4
20260906044646 67 151 0.0 0.0 0.00 0.00 0.00 87 1013.4
20260906044143 67 151 0.0 0.0 0.00 0.00 0.00 88 1013.5
20260906043648 67 151 0.0 0.0 0.00 0.00 0.00 87 1013.6
20260906043643 67 151 0.0 0.0 0.00 0.00 0.00 87 1013.6
20260906042647 67 151 0.0 0.0 0.00 0.00 0.00 87 1013.7
20260906042642 68 151 0.0 0.0 0.00 0.00 0.00 87 1013.7
20260906041637 68 151 0.0 0.0 0.00 0.00 0.00 87 1013.6
20260906041136 68 151 0.0 0.0 0.00 0.00 0.00 86 1013.5
20260906040635 68 151 0.0 0.0 0.00 0.00 0.00 86 1013.5
20260906040136 68 151 0.0 0.0 0.00 0.00 0.00 86 1013.5
20260906035636 69 151 0.0 0.0 0.00 0.00 0.00 86 1013.5
20260906035127 69 151 0.0 0.0 0.00 0.00 0.00 85 1013.5
20260906034625 69 151 0.0 0.0 0.00 0.00 0.00 85 1013.5
20260906034130 69 151 0.0 0.0 0.00 0.00 0.00 85 1013.6
20260906034125 69 151 0.0 0.0 0.00 0.00 0.00 85 1013.6
20260906033128 69 151 0.0 0.0 0.00 0.00 0.00 84 1013.6
20260906032627 70 151 0.0 0.0 0.00 0.00 0.00 84 1013.7
20260906032622 69 151 0.0 0.0 0.00 0.00 0.00 84 1013.7
20260906031613 70 151 0.0 0.0 0.00 0.00 0.00 84 1013.6
20260906031116 70 151 0.0 0.0 0.00 0.00 0.00 83 1013.5
20260906031110 70 151 0.0 0.0 0.00 0.00 0.00 84 1013.7
20260906030110 70 151 0.0 0.0 0.00 0.00 0.00 82 1013.4
20260906025612 71 151 0.0 0.0 0.00 0.00 0.00 82 1013.3
20260906025108 71 151 0.0 0.0 0.00 0.00 0.00 82 1013.3
20260906024608 71 151 0.0 0.0 0.00 0.00 0.00 82 1013.3
20260906024109 71 151 0.0 0.0 0.00 0.00 0.00 82 1013.3
20260906023613 71 151 0.0 0.0 0.00 0.00 0.00 82 1013.3
20260906023607 71 151 0.0 0.0 0.00 0.00 0.00 82 1013.4
20260906022606 71 151 0.0 0.0 0.00 0.00 0.00 82 1013.2
20260906022108 71 151 0.0 0.0 0.00 0.00 0.00 81 1013.3
20260906022103 71 151 0.0 0.0 0.00 0.00 0.00 81 1013.2
20260906021057 71 151 0.0 0.0 0.00 0.00 0.00 81 1013.1
20260906020545 71 151 0.0 0.0 0.00 0.00 0.00 80 1013.2
20260906020049 72 151 0.0 1.0 0.00 0.00 0.00 81 1013.2
20260906020045 71 151 0.0 1.0 0.00 0.00 0.00 80 1013.2
20260906015702 72 151 0.0 2.0 0.00 0.00 0.00 81 1013.1
20260906014542 72 151 0.0 2.0 0.00 0.00 0.00 82 1013.1
20260906014043 72 151 0.0 3.0 0.00 0.00 0.00 82 1013.0
20260906013543 72 151 0.0 3.0 0.00 0.00 0.00 81 1013.0
20260906013039 72 151 0.0 4.0 0.00 0.00 0.00 82 1013.0
20260906012541 72 111 0.0 2.0 0.00 0.00 0.00 81 1012.6
20260906012536 72 162 0.0 4.0 0.00 0.00 0.00 81 1012.8
20260906011525 72 111 0.0 2.0 0.00 0.00 0.00 82 1012.6
20260906011025 72 133 0.0 2.0 0.00 0.00 0.00 82 1012.6
20260906010531 72 22 0.0 2.0 0.00 0.00 0.00 83 1012.4
20260906010526 72 132 0.0 2.0 0.00 0.00 0.00 82 1012.5
20260906005523 72 22 0.0 2.0 0.00 0.00 0.00 83 1012.3
20260906005026 72 22 0.0 1.0 0.00 0.00 0.00 85 1012.4
20260906005022 72 22 0.0 1.0 0.00 0.00 0.00 84 1012.3
20260906004023 72 22 0.0 0.0 0.00 0.00 0.00 84 1012.3
20260906004019 72 22 0.0 1.0 0.00 0.00 0.00 84 1012.3
20260906003018 72 22 0.0 0.0 0.00 0.00 0.00 84 1012.2
20260906003011 72 22 0.0 0.0 0.00 0.00 0.00 83 1012.1
20260906002009 72 22 0.0 0.0 0.00 0.00 0.00 83 1012.2
20260906001511 72 22 0.0 0.0 0.00 0.00 0.00 83 1012.2
20260906001013 72 22 0.0 0.0 0.00 0.00 0.00 82 1012.0
20260906001008 72 22 0.0 0.0 0.00 0.00 0.00 83 1012.1
20260906000003 73 22 0.0 1.0 0.00 0.00 0.00 82 1012.0
20260905235500 73 22 0.0 1.0 0.00 0.00 0.00 81 1012.0
20260905235002 73 22 0.0 1.0 0.00 0.00 0.00 81 1011.9
20260905234456 74 22 0.0 1.0 0.00 0.00 0.00 80 1012.0
20260905233955 74 22 0.0 1.0 0.00 0.00 0.00 79 1011.8
20260905233455 74 22 0.0 3.0 0.00 0.00 0.00 79 1011.7
20260905232956 74 22 0.0 3.0 0.00 0.00 0.00 81 1011.7
20260905232951 75 22 1.0 3.0 0.00 0.00 0.00 81 1011.7
20260905231949 76 22 1.0 3.0 0.00 0.00 0.00 76 1011.6
20260905231449 76 11 1.0 3.0 0.00 0.00 0.00 74 1011.6
20260905230948 76 341 0.0 3.0 0.00 0.00 0.00 76 1011.5
20260905230445 77 57 0.0 5.0 0.00 0.00 0.00 76 1011.6
20260905225948 77 57 0.0 5.0 0.00 0.00 0.00 74 1011.5
20260905225944 77 176 1.0 5.0 0.00 0.00 0.00 74 1011.5
20260905224945 77 70 1.0 6.0 0.00 0.00 0.00 74 1011.5
20260905224444 77 10 1.0 8.0 0.00 0.00 0.00 73 1011.4
20260905223943 78 36 0.0 8.0 0.00 0.00 0.00 74 1011.4
20260905223443 78 78 1.0 8.0 0.00 0.00 0.00 73 1011.4
20260905222942 79 76 2.0 8.0 0.00 0.00 0.00 75 1011.4
20260905222440 78 46 1.0 7.0 0.00 0.00 0.00 72 1011.4
20260905221936 78 304 1.0 4.0 0.00 0.00 0.00 73 1011.3
20260905221438 79 48 1.0 6.0 0.00 0.00 0.00 70 1011.3
20260905220936 79 28 2.0 6.0 0.00 0.00 0.00 70 1011.2
20260905220432 79 34 2.0 7.0 0.00 0.00 0.00 69 1011.2
20260905215927 79 117 2.0 7.0 0.00 0.00 0.00 69 1011.2
20260905215432 79 69 2.0 7.0 0.00 0.00 0.00 71 1011.2
20260905215426 79 61 2.0 7.0 0.00 0.00 0.00 70 1011.2
20260905214425 79 179 1.0 5.0 0.00 0.00 0.00 71 1011.1
20260905213923 78 190 1.0 5.0 0.00 0.00 0.00 73 1011.0
20260905213421 78 59 1.0 5.0 0.00 0.00 0.00 73 1010.9
20260905212923 78 158 1.0 5.0 0.00 0.00 0.00 74 1010.8
20260905212422 79 158 2.0 8.0 0.00 0.01 0.00 71 1010.8
20260905211920 79 237 2.0 8.0 0.00 0.01 0.00 75 1010.7
20260905211421 79 194 3.0 8.0 0.00 0.01 0.00 73 1010.7
20260905210919 80 220 2.0 8.0 0.00 0.01 0.00 70 1010.5
20260905210413 79 346 1.0 8.0 0.00 0.01 0.00 72 1010.5
20260905210029 79 23 2.0 7.0 0.00 0.01 0.00 73 1010.6
20260905205919 79 111 2.0 6.0 0.00 0.01 0.00 76 1010.7
20260905205914 78 190 1.0 6.0 0.00 0.01 0.00 77 1010.6
20260905204413 80 14 2.0 7.0 0.00 0.01 0.00 71 1010.7
20260905203858 79 77 1.0 5.0 0.00 0.01 0.00 74 1010.8
20260905203400 78 68 2.0 5.0 0.00 0.01 0.00 76 1010.8
20260905203356 78 115 1.0 5.0 0.00 0.01 0.00 77 1010.7
20260905202356 79 51 2.0 8.0 0.00 0.01 0.00 72 1010.8
20260905202351 79 26 2.0 5.0 0.00 0.01 0.00 72 1010.9
20260905201955 78 49 3.0 8.0 0.00 0.01 0.00 73 1010.9
20260905200844 79 5 2.0 5.0 0.00 0.01 0.00 73 1011.0
20260905200349 78 40 2.0 10.0 0.00 0.01 0.00 73 1011.0
20260905200344 78 24 1.0 10.0 0.00 0.01 0.00 74 1011.0
20260905195342 79 59 3.0 10.0 0.00 0.01 0.00 71 1011.1
20260905194845 79 328 2.0 5.0 0.00 0.01 0.00 75 1011.1
20260905194841 79 19 2.0 10.0 0.00 0.01 0.00 74 1011.2
20260905193841 80 310 3.0 11.0 0.00 0.01 0.00 71 1011.1
20260905193331 79 22 3.0 11.0 0.00 0.01 0.00 72 1011.1
20260905192830 80 15 3.0 11.0 0.00 0.01 0.00 71 1011.2
20260905192330 80 355 3.0 11.0 0.00 0.01 0.00 73 1011.2
20260905191836 79 22 4.0 11.0 0.00 0.01 0.00 73 1011.3
20260905191831 79 41 4.0 11.0 0.00 0.01 0.00 73 1011.2
20260905190831 78 17 2.0 11.0 0.00 0.01 0.00 75 1011.2
20260905190329 78 25 2.0 6.0 0.00 0.01 0.00 75 1011.2
20260905185830 78 36 1.0 6.0 0.00 0.01 0.00 77 1011.3
20260905185321 78 112 1.0 6.0 0.00 0.01 0.00 77 1011.3
20260905184820 78 42 1.0 7.0 0.00 0.01 0.00 76 1011.5
20260905184321 78 18 1.0 7.0 0.00 0.01 0.00 77 1011.5
20260905183814 77 115 1.0 4.0 0.00 0.01 0.00 80 1011.6
20260905183314 78 5 1.0 5.0 0.00 0.01 0.00 79 1011.6
20260905182812 78 30 1.0 5.0 0.00 0.01 0.00 79 1011.7
20260905182808 78 30 1.0 5.0 0.00 0.01 0.00 76 1011.7
20260905181808 78 30 2.0 5.0 0.00 0.01 0.00 76 1011.7
20260905181309 77 188 1.0 5.0 0.00 0.01 0.00 78 1011.7
20260905180801 78 117 1.0 5.0 0.00 0.01 0.00 77 1011.8
20260905180756 77 17 1.0 5.0 0.00 0.01 0.00 81 1011.9
20260905180400 78 52 1.0 5.0 0.00 0.01 0.00 76 1011.8
20260905175255 78 17 1.0 5.0 0.00 0.01 0.00 82 1011.9
20260905174754 78 259 2.0 5.0 0.00 0.01 0.00 79 1012.1
20260905174253 78 284 2.0 5.0 0.00 0.01 0.00 76 1012.2
20260905173752 77 67 2.0 5.0 0.00 0.01 0.00 81 1012.2
20260905173245 77 15 1.0 5.0 0.00 0.01 0.00 77 1012.3
20260905172751 78 22 2.0 5.0 0.00 0.01 0.00 77 1012.4
20260905172747 77 22 1.0 5.0 0.00 0.01 0.00 79 1012.3
20260905171744 77 75 1.0 5.0 0.00 0.01 0.00 79 1012.4
20260905171740 78 41 2.0 5.0 0.00 0.01 0.00 77 1012.4
20260905170740 79 46 2.0 5.0 0.00 0.01 0.00 75 1012.5
20260905170229 78 34 2.0 7.0 0.00 0.01 0.00 75 1012.5
20260905165727 78 44 2.0 7.0 0.00 0.01 0.00 75 1012.4
20260905165227 78 5 3.0 9.0 0.00 0.01 0.00 76 1012.4
20260905164727 78 304 3.0 9.0 0.00 0.01 0.00 75 1012.5
20260905164227 78 24 3.0 8.0 0.00 0.01 0.00 76 1012.5
20260905163724 78 334 3.0 8.0 0.00 0.01 0.00 75 1012.5
20260905163224 78 33 2.0 6.0 0.00 0.01 0.00 76 1012.5
20260905162724 78 269 2.0 7.0 0.00 0.01 0.00 76 1012.5
20260905162221 78 306 2.0 7.0 0.00 0.01 0.00 76 1012.6
20260905161725 79 355 3.0 7.0 0.00 0.01 0.00 76 1012.8
20260905161721 78 302 2.0 7.0 0.00 0.01 0.00 75 1012.8
20260905160721 78 5 2.0 6.0 0.00 0.01 0.00 76 1012.9
20260905160221 79 63 2.0 6.0 0.00 0.01 0.00 76 1013.0
20260905155718 79 17 3.0 7.0 0.00 0.01 0.00 76 1012.9
20260905155208 79 106 2.0 7.0 0.00 0.01 0.00 75 1013.0
20260905154707 79 294 2.0 7.0 0.00 0.01 0.00 77 1013.0
20260905154207 78 5 3.0 7.0 0.00 0.01 0.00 76 1013.0
20260905153706 77 27 3.0 8.0 0.00 0.01 0.00 78 1013.0
20260905153208 77 54 3.0 8.0 0.00 0.01 0.00 78 1013.0
20260905152707 77 297 2.0 5.0 0.00 0.01 0.00 79 1013.2
20260905152207 77 49 1.0 5.0 0.00 0.01 0.00 79 1013.3
20260905151706 77 336 1.0 5.0 0.00 0.01 0.00 78 1013.5
20260905151206 77 27 1.0 4.0 0.00 0.01 0.00 80 1013.5
20260905151202 77 27 2.0 4.0 0.00 0.01 0.00 80 1013.5
20260905150153 76 327 1.0 5.0 0.00 0.01 0.00 81 1013.4
20260905145651 76 13 1.0 5.0 0.00 0.01 0.00 80 1013.4
20260905145152 77 50 2.0 6.0 0.00 0.01 0.00 79 1013.3
20260905144649 77 313 2.0 6.0 0.00 0.01 0.00 78 1013.3
20260905144148 77 333 2.0 6.0 0.00 0.01 0.00 78 1013.3
20260905143647 77 26 2.0 7.0 0.00 0.01 0.00 78 1013.2
20260905143147 77 301 1.0 7.0 0.00 0.01 0.00 79 1013.2
20260905142652 77 36 2.0 6.0 0.00 0.01 0.00 79 1013.0
20260905142648 77 221 2.0 6.0 0.00 0.01 0.00 81 1013.1
20260905141648 77 39 1.0 8.0 0.00 0.01 0.00 80 1012.9
20260905141146 76 355 1.0 8.0 0.00 0.01 0.00 80 1012.6
20260905140644 76 26 2.0 5.0 0.00 0.01 0.00 82 1012.6
20260905140142 75 26 2.0 5.0 0.00 0.01 0.00 82 1012.5
20260905135644 75 18 1.0 5.0 0.00 0.01 0.00 82 1012.4
20260905135142 75 84 1.0 5.0 0.00 0.01 0.00 83 1012.4
20260905134641 75 5 1.0 5.0 0.00 0.01 0.00 85 1012.5
20260905134141 75 297 1.0 5.0 0.00 0.01 0.00 83 1012.6
20260905133638 75 38 1.0 6.0 0.00 0.01 0.00 83 1012.8
20260905133127 75 355 1.0 10.0 0.00 0.01 0.00 84 1012.8
20260905132627 75 86 1.0 10.0 0.00 0.01 0.00 86 1012.6
20260905132126 75 86 3.0 10.0 0.00 0.01 0.00 83 1012.8
20260905131624 75 9 3.0 10.0 0.00 0.01 0.00 83 1012.9
20260905131124 75 69 2.0 6.0 0.00 0.01 0.00 84 1012.8
20260905130625 75 24 3.0 7.0 0.00 0.01 0.00 88 1012.6
20260905130617 75 28 3.0 7.0 0.00 0.01 0.00 86 1012.5
20260905125612 75 23 1.0 5.0 0.00 0.01 0.00 87 1012.6
20260905125113 74 28 1.0 5.0 0.00 0.01 0.00 87 1012.6
20260905124610 74 36 1.0 5.0 0.00 0.01 0.00 88 1012.6
20260905124108 74 36 2.0 5.0 0.00 0.01 0.00 89 1012.4
20260905123613 73 77 1.0 4.0 0.00 0.01 0.00 92 1012.3
20260905123608 74 38 2.0 5.0 0.00 0.01 0.00 90 1012.3
20260905122609 73 53 0.0 6.0 0.00 0.01 0.00 93 1012.3
20260905122100 72 53 1.0 6.0 0.00 0.01 0.00 93 1012.1
20260905121559 72 53 1.0 7.0 0.00 0.01 0.00 93 1012.2
20260905121057 72 102 2.0 7.0 0.00 0.01 0.00 93 1012.2
20260905120556 72 29 2.0 4.0 0.00 0.01 0.00 93 1012.3
20260905120055 71 12 1.0 4.0 0.00 0.01 0.00 93 1012.1